Temp
17 18 18 18 18 19 19 20 20 20 20 21 21 22 22 22 23 22 23 25 26 27 27 26 24 26 28 29 30 30 25 31 32 33 32 33 32 31 30 30 26 28 27 25 25
17 17 18 18 18 18 19 20 20 20 20 21 21 21 21 22 23 23 25 25 26 26 27 26 27 28 29 30 31 19 19 27 30 34 33 33 33 31 31 30 30 28 27 26 25
17 17 17 17 18 18 19 19 20 20 21 21 21 21 21 22 21 26 27 26 26 26 26 27 29 30 31 31 33 20 22 27 28 34 34 33 33 32 31 30 30 28 27 26 26
16 16 17 17 17 18 18 19 19 20 21 21 21 21 21 21 25 26 26 26 26 26 25 28 29 31 32 32 32 22 19 24 34 35 34 34 33 32 31 31 30 28 26 26 26
15 16 16 17 17 18 18 19 19 20 21 21 21 21 21 21 24 26 26 26 26 26 25 28 30 31 32 33 34 27 26 29 35 34 35 33 33 32 32 31 30 28 26 26 26
14 15 16 16 17 18 18 19 19 20 21 21 21 21 20 22 26 27 26 26 26 25 26 28 30 31 32 33 34 35 34 35 35 35 35 34 33 32 32 31 30 28 26 26 26
13 14 15 16 16 17 18 19 20 20 20 21 21 21 19 23 27 27 26 26 25 26 27 28 29 31 32 33 34 35 35 36 35 35 35 35 32 32 31 31 30 28 27 27 27
13 14 14 15 16 17 18 19 20 20 21 21 21 20 20 25 27 26 27 27 28 28 28 29 29 30 31 33 34 35 35 34 36 36 35 34 27 33 31 31 30 29 28 27 27
12 14 15 15 16 17 19 19 20 21 20 21 20 20 24 26 26 27 27 28 28 28 29 29 30 30 31 32 32 34 33 34 33 36 35 33 24 28 29 32 30 29 29 28 27
11 12 13 15 16 17 19 20 21 20 19 18 19 20 23 28 28 28 27 28 28 29 29 29 30 31 32 32 30 32 33 34 33 35 35 27 21 25 27 32 31 30 29 29 28
11 12 13 14 15 16 19 21 20 19 17 22 25 24 29 28 29 29 28 28 29 29 29 30 30 30 31 32 33 34 35 34 34 27 35 32 26 22 26 32 32 31 30 29 29
10 11 13 15 15 17 17 18 21 19 21 22 23 25 26 29 29 29 29 29 29 29 31 31 29 32 33 33 33 34 34 35 34 30 32 34 28 26 28 33 33 32 31 30 29
10 10 10 14 15 16 16 18 19 19 21 23 25 25 26 28 29 30 29 29 30 30 30 30 31 33 33 33 33 33 34 35 34 34 35 35 34 34 34 33 33 33 32 31 30
9 9 9 12 15 16 18 18 18 19 21 26 29 28 27 28 29 29 30 30 31 30 31 31 33 33 32 32 33 32 35 35 35 34 32 35 32 34 35 34 33 33 33 32 31
9 9 9 10 11 14 17 17 17 19 22 33 31 30 30 29 31 30 30 30 30 31 32 31 32 33 32 33 34 34 35 35 35 34 34 32 31 33 34 34 34 34 33 33 32
8 9 9 11 9 15 15 16 18 21 22 31 31 30 30 31 30 32 30 30 30 31 32 32 34 34 34 34 35 35 35 35 35 35 32 32 30 31 33 34 33 35 34 33 33
8 9 10 10 12 13 14 16 20 22 29 30 31 31 31 30 30 32 30 30 30 29 29 32 32 34 35 34 34 34 34 32 32 33 32 35 31 31 34 34 33 32 33 34 33
9 10 11 11 10 13 13 17 19 25 25 32 33 32 30 31 30 31 31 29 31 31 30 30 30 33 34 33 33 33 34 33 29 32 33 35 34 33 34 33 31 29 32 35 34
8 9 11 12 13 13 14 17 20 23 28 30 31 31 31 31 32 31 31 30 31 31 30 31 31 34 34 35 34 33 32 35 33 34 33 35 36 37 37 34 32 32 35 34 33
6 6 12 13 14 14 15 15 20 23 26 27 27 30 30 32 31 32 31 32 31 32 32 32 31 34 34 34 34 34 35 32 33 30 31 34 34 35 34 32 34 33 35 35 35
6 10 13 14 14 14 14 16 18 19 21 22 22 24 27 30 32 32 32 33 33 33 33 32 32 32 34 33 32 32 32 33 34 33 32 32 34 37 35 35 35 35 36 36 36
7 11 14 14 15 15 16 17 18 19 20 22 24 24 25 27 29 31 32 33 34 34 32 32 31 30 32 34 34 34 33 32 31 31 33 33 34 38 36 36 36 36 36 36 36
6 9 11 13 14 15 17 18 19 19 20 21 22 24 26 25 25 28 30 33 34 33 32 33 31 29 30 33 34 33 33 33 33 33 31 32 33 36 36 33 35 36 36 36 36
4 10 13 14 14 16 14 14 16 19 21 22 21 22 23 24 26 26 27 30 32 34 28 31 31 30 30 30 33 32 33 33 33 32 32 33 33 35 35 33 34 36 36 36 36
4 9 11 10 12 13 10 10 11 14 17 18 18 19 16 18 24 25 26 28 30 29 30 31 28 30 31 31 33 33 33 33 32 32 32 33 34 34 35 34 35 35 35 35 35
2 6 7 8 10 12 11 11 11 12 10 12 15 15 15 15 16 13 17 23 27 31 30 30 28 28 29 32 32 32 33 33 33 33 33 33 33 36 36 36 34 35 34 35 35
3 3 3 6 9 11 13 13 10 10 10 13 10 10 12 13 12 13 15 17 22 27 29 28 28 27 27 30 31 30 32 33 33 33 33 32 33 35 34 34 35 35 34 35 35
Height
1519 1516 1514 1512 1510 1508 1505 1503 1501 1500 1498 1496 1494 1493 1491 1487 1485 1483 1479 1480 1481 1481 1481 1481 1481 1480 1479 1479 1474 1469 1494 1468 1462 1457 1465 1467 1471 1475 1483 1486 1500 1500 1509 1518 1523
1517 1515 1512 1510 1508 1505 1503 1501 1499 1497 1495 1493 1492 1490 1488 1484 1480 1474 1472 1475 1478 1478 1478 1480 1480 1479 1475 1477 1471 1482 1505 1483 1472 1453 1458 1464 1471 1476 1483 1490 1494 1501 1509 1517 1522
1516 1513 1511 1508 1505 1502 1500 1498 1496 1494 1491 1490 1489 1487 1485 1482 1477 1465 1463 1469 1473 1475 1477 1478 1478 1476 1472 1471 1463 1495 1498 1477 1461 1452 1457 1464 1470 1477 1482 1488 1493 1500 1509 1517 1521
1515 1512 1509 1506 1503 1500 1497 1495 1493 1491 1488 1487 1485 1483 1482 1482 1476 1466 1466 1467 1469 1471 1475 1475 1474 1472 1470 1466 1464 1495 1495 1476 1449 1451 1455 1461 1470 1474 1480 1483 1493 1501 1510 1516 1520
1512 1509 1507 1504 1500 1497 1494 1490 1488 1487 1485 1483 1482 1480 1480 1478 1467 1467 1466 1467 1467 1467 1470 1471 1470 1468 1466 1462 1457 1471 1475 1461 1454 1455 1454 1461 1467 1476 1477 1484 1492 1502 1511 1516 1520
1510 1507 1504 1500 1497 1494 1491 1487 1484 1482 1481 1480 1478 1476 1476 1473 1461 1461 1463 1463 1466 1466 1468 1468 1467 1467 1462 1459 1455 1448 1450 1446 1449 1452 1454 1458 1467 1476 1482 1485 1493 1501 1509 1514 1517
1508 1505 1501 1497 1493 1489 1486 1483 1481 1478 1476 1475 1475 1473 1471 1458 1458 1457 1460 1461 1462 1464 1465 1466 1467 1466 1463 1457 1453 1448 1447 1442 1446 1449 1451 1458 1470 1473 1480 1487 1492 1500 1506 1511 1515
1506 1502 1499 1494 1490 1486 1482 1479 1475 1474 1472 1471 1471 1469 1460 1452 1454 1454 1457 1459 1461 1462 1463 1464 1466 1465 1462 1459 1452 1447 1441 1450 1439 1445 1450 1458 1488 1472 1477 1484 1491 1498 1503 1508 1512
1503 1499 1495 1491 1487 1483 1478 1475 1470 1468 1467 1467 1468 1467 1453 1446 1447 1449 1452 1455 1458 1459 1460 1462 1462 1462 1462 1458 1458 1446 1454 1445 1445 1442 1446 1457 1492 1477 1480 1481 1488 1495 1499 1504 1509
1500 1495 1492 1489 1484 1479 1474 1470 1466 1463 1462 1463 1464 1470 1444 1439 1440 1443 1447 1450 1453 1455 1457 1458 1458 1455 1455 1455 1470 1455 1447 1438 1446 1441 1442 1464 1488 1489 1479 1477 1483 1490 1495 1499 1504
1496 1492 1488 1486 1482 1478 1473 1468 1468 1463 1461 1454 1447 1442 1433 1433 1435 1438 1441 1446 1448 1448 1449 1450 1453 1449 1447 1446 1443 1436 1434 1434 1432 1452 1441 1450 1473 1478 1478 1473 1476 1482 1489 1494 1498
1493 1489 1486 1483 1480 1477 1475 1473 1471 1470 1453 1446 1439 1437 1431 1431 1433 1435 1438 1441 1441 1441 1442 1444 1444 1437 1439 1439 1441 1435 1433 1427 1425 1441 1445 1441 1463 1462 1468 1460 1465 1472 1480 1486 1492
1492 1488 1483 1480 1478 1476 1476 1474 1471 1469 1458 1425 1418 1420 1420 1426 1423 1423 1430 1433 1432 1436 1433 1436 1431 1432 1433 1435 1438 1433 1432 1426 1432 1431 1429 1434 1445 1441 1443 1452 1458 1462 1469 1477 1484
1490 1487 1482 1478 1479 1474 1472 1473 1471 1469 1457 1412 1399 1401 1413 1421 1416 1419 1421 1427 1426 1426 1426 1425 1422 1424 1428 1430 1428 1437 1420 1420 1425 1433 1451 1429 1460 1438 1434 1442 1447 1453 1459 1465 1473
1489 1485 1481 1482 1476 1473 1473 1472 1470 1469 1463 1380 1387 1393 1395 1402 1395 1403 1413 1417 1418 1417 1418 1420 1418 1417 1421 1420 1418 1423 1414 1417 1418 1426 1435 1445 1463 1437 1428 1437 1438 1443 1452 1456 1462
1485 1482 1479 1477 1476 1470 1470 1472 1471 1467 1445 1385 1382 1390 1392 1393 1396 1392 1404 1411 1414 1414 1409 1409 1405 1405 1405 1410 1412 1414 1417 1415 1415 1418 1446 1441 1456 1449 1433 1428 1432 1433 1442 1448 1453
1481 1478 1475 1473 1468 1470 1470 1472 1466 1446 1389 1380 1377 1382 1386 1388 1392 1386 1397 1402 1404 1420 1416 1405 1402 1396 1400 1407 1408 1411 1421 1441 1447 1437 1442 1416 1442 1434 1412 1416 1424 1433 1438 1438 1442
1477 1472 1468 1466 1465 1467 1471 1469 1450 1399 1403 1363 1366 1372 1385 1381 1385 1384 1387 1397 1392 1396 1405 1413 1416 1396 1391 1399 1406 1410 1411 1428 1458 1444 1433 1404 1421 1418 1408 1413 1420 1437 1439 1431 1435
1472 1466 1459 1460 1462 1466 1469 1450 1412 1405 1384 1378 1372 1370 1370 1372 1372 1376 1376 1381 1380 1383 1397 1397 1401 1380 1386 1390 1396 1401 1411 1401 1419 1411 1419 1403 1394 1385 1391 1405 1414 1420 1420 1426 1431
1470 1464 1452 1450 1456 1460 1456 1430 1411 1406 1394 1387 1387 1371 1371 1360 1368 1363 1366 1366 1372 1372 1378 1380 1397 1376 1377 1384 1383 1388 1392 1417 1410 1438 1436 1410 1406 1403 1394 1400 1413 1413 1413 1416 1414
1471 1464 1452 1451 1453 1453 1437 1424 1422 1415 1411 1408 1401 1391 1372 1359 1352 1354 1353 1353 1358 1363 1369 1376 1381 1380 1370 1375 1388 1395 1400 1396 1398 1402 1416 1425 1402 1371 1379 1389 1393 1399 1400 1410 1410
1473 1462 1449 1449 1448 1438 1427 1422 1424 1413 1408 1399 1392 1387 1380 1369 1356 1346 1346 1344 1344 1350 1360 1363 1375 1385 1372 1359 1365 1373 1384 1391 1406 1410 1397 1400 1392 1364 1367 1371 1381 1388 1394 1399 1404
1470 1456 1447 1444 1433 1428 1422 1414 1411 1406 1401 1396 1390 1382 1374 1370 1371 1353 1342 1333 1337 1341 1347 1353 1367 1387 1383 1364 1354 1365 1373 1379 1385 1388 1395 1406 1393 1362 1371 1384 1386 1387 1390 1395 1398
1474 1450 1438 1431 1427 1422 1425 1418 1408 1398 1392 1390 1384 1384 1374 1366 1358 1357 1350 1337 1331 1332 1339 1343 1350 1362 1368 1370 1360 1366 1363 1368 1377 1392 1386 1382 1386 1368 1370 1376 1383 1380 1388 1390 1393
1473 1454 1444 1441 1430 1429 1439 1438 1428 1410 1397 1394 1388 1387 1396 1383 1362 1357 1352 1344 1334 1324 1333 1341 1357 1353 1351 1354 1352 1353 1356 1362 1371 1370 1383 1371 1371 1372 1364 1371 1375 1381 1385 1388 1391
1471 1461 1455 1446 1438 1429 1430 1428 1425 1417 1421 1409 1399 1397 1399 1397 1395 1397 1380 1353 1338 1326 1331 1338 1353 1357 1357 1345 1349 1353 1347 1344 1351 1360 1363 1365 1366 1357 1360 1362 1371 1381 1385 1386 1389
1465 1463 1463 1451 1440 1430 1419 1416 1424 1424 1418 1410 1413 1414 1406 1400 1400 1394 1385 1368 1353 1331 1329 1338 1346 1358 1364 1349 1350 1361 1337 1341 1344 1346 1356 1369 1355 1353 1357 1360 1363 1366 1375 1379 1381
Wind_Speed
18 18 17 17 17 17 18 18 18 17 17 17 17 18 18 21 20 21 22 16 19 20 16 11 16 17 19 21 21 15 5 7 9 17 16 10 12 22 21 21 23 17 27 30 26
19 19 19 18 18 18 18 19 19 19 19 18 17 17 18 21 23 27 24 17 15 18 19 18 18 19 23 20 19 13 5 6 18 12 15 13 12 15 14 16 20 27 28 28 30
19 20 20 20 20 20 20 20 20 20 20 19 18 17 16 19 22 15 12 21 24 23 19 19 18 19 22 19 23 5 5 24 34 20 19 14 15 12 20 14 14 32 30 28 28
21 21 21 20 21 21 22 22 21 20 20 20 18 17 16 13 7 1 2 7 18 24 20 22 23 23 19 18 9 13 25 29 2 9 18 15 18 9 13 20 22 25 28 28 26
21 21 21 21 22 22 22 23 22 21 20 20 18 17 16 11 27 17 14 9 4 17 23 24 25 24 20 19 20 16 24 37 10 6 12 22 15 12 10 23 23 26 28 29 26
23 22 21 22 23 23 22 23 24 22 20 20 18 17 14 18 12 15 18 15 14 15 23 24 22 23 25 20 20 21 24 20 6 11 13 15 18 15 13 20 24 27 29 28 27
25 25 24 23 23 24 23 22 23 23 21 19 18 16 14 29 8 14 12 17 16 18 22 24 23 22 24 22 24 25 19 14 7 11 10 8 14 12 21 16 23 27 28 27 26
25 25 25 24 24 25 25 23 22 20 20 19 14 13 14 17 14 19 15 18 17 19 19 20 22 26 27 23 25 22 20 14 16 14 13 16 4 8 22 21 23 26 27 27 26
27 26 24 25 25 25 24 22 22 19 18 16 9 7 17 10 20 22 23 22 20 19 19 20 23 26 25 21 18 20 16 17 9 13 16 11 13 19 10 21 24 25 27 27 26
31 30 27 24 24 24 22 19 18 19 13 10 12 10 25 19 15 18 22 23 22 20 21 22 22 17 19 17 17 22 19 20 17 18 18 21 13 17 34 21 25 26 27 27 28
33 32 31 25 23 21 18 11 12 4 9 18 11 17 18 14 17 14 18 23 23 24 20 27 16 21 26 25 24 24 20 24 14 18 19 19 17 16 39 27 25 27 27 28 28
32 33 31 28 22 12 11 9 9 10 17 25 37 34 32 18 15 17 19 22 25 20 22 20 25 26 24 26 26 28 26 24 22 26 27 17 25 32 32 24 27 29 28 29 29
33 33 34 28 16 5 13 15 11 14 12 24 38 41 43 30 26 22 26 26 23 23 24 25 24 25 26 26 28 27 26 22 10 24 23 16 18 22 23 27 26 27 33 31 31
32 30 31 31 6 8 9 6 10 13 7 11 16 29 35 37 34 31 29 27 19 24 24 25 25 26 27 29 28 26 26 26 14 17 13 20 14 17 21 23 22 27 27 34 33
28 27 26 19 22 16 9 13 13 6 7 4 16 7 23 37 9 38 37 32 25 24 17 24 25 28 29 31 30 25 26 24 22 17 19 18 13 14 18 20 24 22 29 29 35
26 24 24 17 14 12 15 15 9 6 11 7 12 11 18 30 35 17 42 37 31 24 24 24 28 28 27 27 29 26 25 25 22 18 14 16 13 25 19 19 7 24 30 30 30
27 25 19 20 20 8 5 8 6 10 9 14 17 15 20 21 27 18 27 30 26 24 24 25 27 25 25 24 27 28 25 15 17 17 17 23 22 14 12 15 5 12 27 35 34
26 25 18 16 16 9 9 8 16 11 28 12 12 19 22 22 25 28 23 25 31 25 18 22 21 29 24 29 25 25 26 16 20 18 19 23 20 14 23 23 15 36 37 37 34
27 23 23 16 16 13 16 15 11 20 16 19 23 20 23 25 23 27 28 26 31 32 25 21 25 20 30 23 27 26 26 26 25 23 17 18 17 21 17 16 28 40 12 11 17
30 27 20 12 13 17 14 28 19 28 26 25 25 22 26 24 27 28 28 27 28 32 29 24 18 23 24 27 29 28 18 24 20 26 25 20 20 12 19 20 15 17 22 29 32
21 15 21 7 13 18 16 23 26 40 38 30 29 29 29 26 27 28 28 26 29 28 29 27 22 20 24 27 27 20 23 24 21 21 17 17 16 16 18 22 19 22 25 29 19
18 9 11 7 14 15 17 27 32 31 40 32 29 30 31 30 28 29 31 27 24 28 29 27 18 20 27 26 29 30 29 28 18 22 18 19 16 16 7 21 20 19 23 22 22
16 23 24 26 16 14 22 29 30 28 28 31 31 31 28 30 28 30 29 25 28 26 26 22 22 17 24 25 25 30 28 27 27 23 21 19 17 22 8 12 20 17 24 29 29
10 7 21 24 33 19 14 19 25 31 28 28 24 23 30 30 28 29 28 29 31 30 8 19 21 28 19 20 19 24 29 29 27 19 22 20 20 26 10 20 18 16 22 13 15
7 8 19 9 14 9 9 14 22 26 23 25 17 20 15 14 26 28 30 31 31 15 12 15 16 20 28 31 27 27 29 28 28 26 22 23 21 24 23 12 13 10 13 12 10
6 12 15 25 28 22 15 20 18 26 20 24 17 19 20 18 14 17 28 25 24 21 20 19 18 17 24 28 30 28 27 27 30 29 29 26 25 20 26 28 14 27 22 19 18
11 17 13 13 18 17 16 13 14 20 15 19 11 14 19 19 27 33 36 37 32 25 17 20 16 16 21 23 24 26 30 24 24 26 23 24 23 17 16 13 14 21 24 22 30
Wind_Direction
324 322 321 321 320 317 314 311 310 308 305 303 302 304 304 298 292 288 267 258 246 242 247 243 222 238 244 251 259 266 305 297 267 110 118 172 107 91 121 127 131 128 152 148 149
322 322 320 321 319 315 312 310 309 308 307 304 302 302 304 303 296 283 261 243 244 226 232 211 222 233 244 247 250 84 332 311 300 138 130 125 152 111 121 138 129 136 138 144 153
325 323 322 321 317 313 311 310 308 307 306 306 304 301 302 307 312 303 242 230 230 233 229 222 229 231 244 251 254 139 210 249 266 127 124 152 118 154 135 166 154 137 144 156 160
330 327 325 323 318 314 311 308 306 305 304 305 305 301 297 299 288 188 222 201 222 227 225 223 228 233 239 245 196 98 257 254 249 136 135 154 133 160 152 154 150 146 156 162 164
330 327 326 324 318 313 309 306 305 302 301 301 302 299 298 264 253 261 262 235 253 212 210 218 222 232 236 245 255 146 216 239 220 177 157 130 144 133 155 136 147 151 162 166 169
331 327 326 325 319 315 312 307 302 300 298 296 295 292 283 260 270 237 231 244 225 208 210 218 224 230 247 245 263 262 184 241 145 170 179 162 138 148 136 142 150 157 168 173 175
333 331 329 325 319 316 313 308 303 299 295 292 290 281 256 247 252 194 216 224 214 211 215 222 228 239 244 261 257 269 262 226 190 234 180 175 144 171 148 169 154 164 173 177 181
329 327 328 327 321 318 313 309 301 297 291 290 285 269 258 267 252 229 223 214 215 216 223 225 228 241 250 250 262 264 254 237 209 215 170 199 13 173 150 174 163 173 177 180 186
328 325 326 329 324 322 316 312 302 294 285 282 277 235 264 258 222 220 218 218 223 226 224 225 227 227 241 248 248 251 240 229 131 224 156 173 136 276 263 181 173 180 182 184 188
326 324 325 327 326 326 322 317 308 293 283 269 221 257 250 229 213 216 217 216 217 217 219 220 226 225 225 230 231 237 218 244 172 205 198 122 127 273 262 198 182 185 185 190 191
321 320 319 324 328 329 330 345 313 276 230 233 199 217 274 220 218 202 197 200 212 216 216 210 214 220 216 225 235 245 227 228 159 356 202 162 150 251 241 209 190 186 189 194 198
318 320 317 317 328 329 340 326 335 314 294 261 254 250 249 213 195 209 199 202 210 210 212 213 219 221 217 220 231 245 254 244 166 173 233 188 179 185 222 189 192 187 190 198 199
322 322 324 319 328 359 311 297 300 321 284 282 242 234 227 229 239 214 200 204 205 213 210 223 214 222 214 221 225 235 247 253 198 195 208 198 205 191 180 184 195 199 190 197 201
325 326 325 325 314 287 324 322 322 319 279 265 216 232 222 220 235 226 208 205 221 215 221 222 233 209 221 219 224 231 235 253 242 172 200 214 221 204 196 184 188 193 208 194 196
328 327 324 331 303 294 302 318 318 295 284 125 179 219 193 200 166 210 214 203 217 218 217 224 219 230 210 223 222 233 235 238 252 231 193 191 264 261 206 200 186 189 202 210 196
328 327 322 318 284 312 308 308 300 236 242 244 146 195 197 202 217 235 201 219 218 229 233 235 226 227 228 216 230 227 239 246 245 253 227 195 181 266 194 203 206 189 203 202 208
325 322 308 294 269 278 302 276 224 229 226 230 182 194 208 199 207 204 191 203 211 216 226 225 236 229 232 217 219 232 228 230 236 236 242 215 189 209 266 177 186 246 249 198 198
321 318 309 286 274 278 265 240 235 235 224 281 253 195 209 213 208 222 195 208 212 213 217 223 221 227 210 229 222 220 227 227 229 230 237 238 236 197 200 170 174 234 223 208 194
322 323 301 266 247 223 233 225 231 228 279 239 256 256 214 214 222 209 211 210 211 211 218 218 229 218 227 213 231 218 223 231 239 244 249 237 223 223 208 189 186 206 192 178 171
322 315 300 261 214 210 228 238 247 259 282 293 282 275 248 222 216 223 210 214 218 209 223 234 244 218 211 226 220 229 219 222 233 239 243 243 247 236 190 174 206 204 191 190 218
319 302 290 214 201 222 237 248 251 265 274 277 283 284 277 260 241 225 229 209 209 217 214 226 242 243 212 204 219 211 230 238 233 240 245 246 245 240 184 188 197 207 194 233 213
304 275 266 225 239 239 250 254 258 266 275 279 274 261 270 278 275 255 227 231 221 208 217 213 224 239 244 217 211 218 215 230 236 223 238 256 249 245 225 199 189 208 220 208 221
297 281 265 269 260 257 267 265 265 267 260 262 266 269 264 259 269 273 274 250 213 236 214 210 216 226 239 246 219 211 223 221 238 247 241 235 243 258 112 46 269 202 210 213 217
298 293 292 257 246 254 305 308 306 284 252 257 285 291 264 262 257 264 267 273 271 219 128 209 223 218 232 230 233 219 215 221 232 230 238 245 233 257 230 179 226 156 241 195 199
273 280 310 310 301 287 302 299 301 297 296 301 293 284 340 298 255 256 256 266 272 212 194 221 233 249 219 245 230 235 219 219 227 240 242 238 239 224 251 202 210 240 196 230 214
268 300 323 302 296 300 278 271 263 284 0 324 264 290 312 295 336 318 320 283 258 246 202 217 231 244 254 226 240 247 229 230 218 225 241 247 248 245 228 248 202 200 241 221 215
275 290 282 292 292 292 290 300 307 311 293 290 46 323 302 319 317 304 293 282 278 262 218 197 224 221 239 241 237 237 240 234 236 222 229 240 249 256 250 267 261 219 240 236 203